STARLINK-2653 (48665 NORAD) Tracking and Keplerian Element Data

This shows tracking and keplerian element data for the satellite.

Feedback or suggestion? Click here.




ElementValue
Catalog48665
NameSTARLINK-2653
Epoch Orbit1156
Epoch Day214.91667824
Epoch Year2021
RAAN92.4971
Inclination53.0474
Eccentricity0.0001432
Argument of Perigee66.5834
Mean Anonmoly49.718
Mean Motion15.13634373
Decay Rate-0.0092571
L11 48665U 21044AD 21214.91667824 -.00925710 00000-0 -55041-1 0 9995
L22 48665 53.0474 92.4971 0001432 66.5834 49.7180 15.13634373 11566

Live tracking and technical data element details for STARLINK-2653 (NORAD 48665). STARLINK-2653 can be tracked NOW for your location showing map with azimuth and elevation plus other details from your city location.

Track the satellite on the map from your city or location and see movement details for azimuth, elevation, latitude, longitude, range, height, and movement on the map or in text.







IsCatalogInMostPopularTable: catalog: 48665, numindb: 15
Update: records affected: 1



GetName: 48665 STARLINK-2653

Hit Count: updated at: Tue, 03 Aug 2021 21:12:28 GMT